When you browse on this site, cookies collect data to enhance your experience and personalize the content and advertising you see.
Visit our Privacy Policy to learn more. By continuing to use the site, you agree to this use of cookies and data.
  • In Sweden
  • List of Countries
  • For 7 days
  • Water Temperature
  • Satellite Maps
  • Weather Map
  • Weather Widgets
  • user-avatar
    Login

    Hourly Weather Gorale

    Today, 20 July, Saturday

    Time Temperature Precipitation Wind Pressure Humidity
    00:00 +17°C° 0 mm 2 mps 742 mmHg 94%
    01:00 +16°C° 0 mm 2 mps 742 mmHg 94%
    02:00 +16°C° 0 mm 2 mps 742 mmHg 94%
    03:00 +16°C° 0 mm 2 mps 742 mmHg 94%
    04:00 +16°C° 0 mm 2 mps 742 mmHg 94%
    05:00 +17°C° 0 mm 2 mps 743 mmHg 89%
    06:00 +19°C° 0 mm 2 mps 743 mmHg 84%
    07:00 +20°C° 0 mm 2 mps 743 mmHg 78%
    08:00 +21°C° 0 mm 2 mps 743 mmHg 71%
    09:00 +24°C° 0 mm 2 mps 743 mmHg 64%
    10:00 +25°C° 0 mm 2 mps 743 mmHg 56%
    11:00 +26°C° 0 mm 2 mps 743 mmHg 54%
    12:00 +27°C° 0 mm 2 mps 743 mmHg 51%
    13:00 +28°C° 0 mm 2 mps 743 mmHg 48%
    14:00 +28°C° 0 mm 2 mps 743 mmHg 49%
    15:00 +28°C° 0 mm 2 mps 743 mmHg 50%
    16:00 +28°C° 0 mm 2 mps 743 mmHg 51%
    17:00 +27°C° 0 mm 1 mps 743 mmHg 55%
    18:00 +26°C° 0 mm 1 mps 743 mmHg 59%
    19:00 +23°C° 0 mm 0 mps 743 mmHg 63%
    20:00 +24°C° 0 mm 1 mps 743 mmHg 64%
    21:00 +23°C° 0 mm 1 mps 743 mmHg 66%
    22:00 +21°C° 0 mm 2 mps 743 mmHg 67%
    23:00 +21°C° 0 mm 2 mps 743 mmHg 70%

    Tomorrow, 21 July, Sunday

    Time Temperature Precipitation Wind Pressure Humidity
    00:00 +21°C° 0 mm 2 mps 743 mmHg 72%
    01:00 +20°C° 0 mm 2 mps 743 mmHg 75%
    02:00 +20°C° 0.1 mm 2 mps 743 mmHg 79%
    03:00 +19°C° 0.1 mm 2 mps 743 mmHg 82%
    04:00 +19°C° 0.1 mm 2 mps 743 mmHg 86%
    05:00 +20°C° 0.1 mm 3 mps 743 mmHg 83%
    06:00 +21°C° 0.1 mm 3 mps 742 mmHg 80%
    07:00 +22°C° 0.1 mm 3 mps 742 mmHg 77%
    08:00 +25°C° 0 mm 3 mps 743 mmHg 71%
    09:00 +27°C° 0 mm 4 mps 743 mmHg 65%
    10:00 +29°C° 0 mm 4 mps 743 mmHg 59%
    11:00 +28°C° 1.5 mm 4 mps 743 mmHg 61%
    12:00 +28°C° 1.5 mm 5 mps 743 mmHg 63%
    13:00 +28°C° 1.5 mm 5 mps 743 mmHg 64%
    14:00 +28°C° 0.8 mm 5 mps 743 mmHg 65%
    15:00 +27°C° 0.8 mm 5 mps 743 mmHg 65%
    16:00 +27°C° 0.8 mm 5 mps 743 mmHg 66%
    17:00 +25°C° 0.6 mm 4 mps 743 mmHg 71%
    18:00 +23°C° 0.6 mm 4 mps 743 mmHg 76%
    19:00 +22°C° 0.6 mm 3 mps 744 mmHg 81%
    20:00 +21°C° 0.2 mm 3 mps 744 mmHg 83%
    21:00 +20°C° 0.2 mm 3 mps 745 mmHg 85%
    22:00 +19°C° 0.2 mm 4 mps 745 mmHg 88%
    23:00 +18°C° 0 mm 3 mps 745 mmHg 89%

    Day after tomorrow, 22 July, Monday

    Time Temperature Precipitation Wind Pressure Humidity
    00:00 +18°C° 0 mm 3 mps 745 mmHg 90%
    01:00 +17°C° 0 mm 3 mps 746 mmHg 92%
    02:00 +17°C° 0 mm 3 mps 746 mmHg 93%
    03:00 +17°C° 0 mm 3 mps 746 mmHg 93%
    04:00 +16°C° 0 mm 3 mps 746 mmHg 94%
    05:00 +17°C° 0 mm 3 mps 746 mmHg 90%
    06:00 +18°C° 0 mm 4 mps 747 mmHg 86%
    07:00 +19°C° 0 mm 4 mps 747 mmHg 82%
    08:00 +20°C° 0 mm 5 mps 747 mmHg 75%
    09:00 +21°C° 0 mm 5 mps 747 mmHg 67%
    10:00 +22°C° 0 mm 6 mps 747 mmHg 60%
    11:00 +23°C° 0 mm 6 mps 747 mmHg 57%
    12:00 +24°C° 0 mm 6 mps 747 mmHg 54%
    13:00 +24°C° 0 mm 6 mps 747 mmHg 52%
    14:00 +24°C° 0 mm 6 mps 747 mmHg 52%
    15:00 +23°C° 0 mm 6 mps 747 mmHg 53%
    16:00 +23°C° 0 mm 6 mps 747 mmHg 54%
    17:00 +22°C° 0 mm 5 mps 747 mmHg 58%
    18:00 +21°C° 0 mm 4 mps 747 mmHg 62%
    19:00 +20°C° 0 mm 3 mps 746 mmHg 66%
    20:00 +19°C° 0 mm 3 mps 747 mmHg 67%
    21:00 +18°C° 0 mm 3 mps 747 mmHg 69%
    22:00 +17°C° 0 mm 3 mps 747 mmHg 71%
    23:00 +17°C° 0 mm 3 mps 747 mmHg 73%

    23 July, Tuesday

    Time Temperature Precipitation Wind Pressure Humidity
    00:00 +16°C° 0 mm 2 mps 747 mmHg 76%
    01:00 +15°C° 0 mm 2 mps 747 mmHg 78%
    02:00 +15°C° 0 mm 2 mps 747 mmHg 80%
    03:00 +15°C° 0 mm 2 mps 747 mmHg 82%
    04:00 +14°C° 0 mm 2 mps 746 mmHg 84%
    05:00 +16°C° 0 mm 3 mps 746 mmHg 79%
    06:00 +17°C° 0 mm 3 mps 746 mmHg 75%
    07:00 +18°C° 0 mm 4 mps 746 mmHg 70%
    08:00 +20°C° 0 mm 4 mps 747 mmHg 65%
    09:00 +21°C° 0 mm 4 mps 747 mmHg 61%
    10:00 +22°C° 0 mm 5 mps 747 mmHg 56%
    11:00 +23°C° 0 mm 5 mps 746 mmHg 56%
    12:00 +23°C° 0 mm 5 mps 746 mmHg 55%
    13:00 +23°C° 0 mm 5 mps 746 mmHg 55%
    14:00 +23°C° 0 mm 5 mps 746 mmHg 58%
    15:00 +23°C° 0 mm 4 mps 745 mmHg 60%
    16:00 +22°C° 0 mm 4 mps 745 mmHg 62%
    17:00 +22°C° 0 mm 3 mps 745 mmHg 65%
    18:00 +23°C° 0 mm 2 mps 745 mmHg 68%
    19:00 +21°C° 0 mm 2 mps 745 mmHg 71%
    20:00 +21°C° 0 mm 2 mps 745 mmHg 71%
    21:00 +22°C° 0 mm 1 mps 745 mmHg 71%
    22:00 +21°C° 0 mm 1 mps 745 mmHg 72%
    23:00 +21°C° 0 mm 1 mps 745 mmHg 74%

    24 July, Wednesday

    Time Temperature Precipitation Wind Pressure Humidity
    00:00 +20°C° 0 mm 1 mps 745 mmHg 77%
    01:00 +20°C° 0 mm 1 mps 745 mmHg 79%
    02:00 +18°C° 0 mm 2 mps 745 mmHg 83%
    03:00 +18°C° 0 mm 2 mps 745 mmHg 87%
    04:00 +17°C° 0 mm 2 mps 745 mmHg 90%
    05:00 +19°C° 0 mm 3 mps 745 mmHg 86%
    06:00 +20°C° 0 mm 3 mps 745 mmHg 82%
    07:00 +22°C° 0 mm 4 mps 745 mmHg 77%
    08:00 +23°C° 0 mm 4 mps 745 mmHg 71%
    09:00 +26°C° 0 mm 4 mps 745 mmHg 64%
    10:00 +27°C° 0 mm 4 mps 745 mmHg 58%
    11:00 +28°C° 0 mm 4 mps 745 mmHg 54%
    12:00 +29°C° 0 mm 4 mps 745 mmHg 51%
    13:00 +29°C° 0 mm 5 mps 744 mmHg 47%
    14:00 +29°C° 0 mm 4 mps 744 mmHg 47%
    15:00 +30°C° 0 mm 4 mps 744 mmHg 48%
    16:00 +30°C° 0 mm 4 mps 744 mmHg 48%
    17:00 +28°C° 0 mm 3 mps 744 mmHg 55%
    18:00 +27°C° 0 mm 3 mps 744 mmHg 62%
    19:00 +26°C° 0 mm 2 mps 744 mmHg 69%
    20:00 +24°C° 0 mm 1 mps 745 mmHg 73%
    21:00 +23°C° 0 mm 1 mps 745 mmHg 77%
    22:00 +20°C° 0 mm 0 mps 745 mmHg 80%
    23:00 +22°C° 0 mm 1 mps 745 mmHg 82%

    25 July, Thursday

    Time Temperature Precipitation Wind Pressure Humidity
    00:00 +21°C° 0 mm 1 mps 745 mmHg 83%
    01:00 +21°C° 0 mm 1 mps 746 mmHg 84%
    02:00 +21°C° 0 mm 1 mps 745 mmHg 86%
    03:00 +20°C° 0 mm 1 mps 745 mmHg 87%
    04:00 +20°C° 0 mm 1 mps 745 mmHg 88%
    05:00 +22°C° 0 mm 1 mps 746 mmHg 82%
    06:00 +23°C° 0 mm 1 mps 746 mmHg 75%
    07:00 +25°C° 0 mm 1 mps 746 mmHg 68%
    08:00 +26°C° 0 mm 2 mps 746 mmHg 61%
    09:00 +28°C° 0 mm 2 mps 746 mmHg 55%
    10:00 +29°C° 0 mm 2 mps 746 mmHg 48%
    11:00 +30°C° 0 mm 2 mps 746 mmHg 44%
    12:00 +31°C° 0 mm 2 mps 746 mmHg 39%
    13:00 +33°C° 0 mm 3 mps 746 mmHg 35%
    14:00 +33°C° 0 mm 3 mps 746 mmHg 35%
    15:00 +33°C° 0 mm 3 mps 745 mmHg 34%
    16:00 +33°C° 0 mm 3 mps 745 mmHg 34%
    17:00 +30°C° 0 mm 3 mps 745 mmHg 41%
    18:00 +28°C° 0 mm 3 mps 745 mmHg 47%
    19:00 +26°C° 0 mm 2 mps 745 mmHg 54%
    20:00 +25°C° 0 mm 2 mps 745 mmHg 59%
    21:00 +24°C° 0 mm 2 mps 746 mmHg 63%
    22:00 +21°C° 0 mm 2 mps 746 mmHg 68%
    23:00 +21°C° 0 mm 2 mps 746 mmHg 73%
    Show more